Date String (YYYY-MM-DD hh:mm:ss) UTC,Instrument flags,Ambient pressure (hPa),Sample flow (lpm),Bypass flow (lpm),Sample temperature (°C),Ambient temperature (°C),ASC tube jacket temperature (°C),LED temperature (°C),Box temperature (°C),Sample RH (%),Span deviation,Mass concentration (μg/m³),Mass concentration (μg/m³),Mass concentration (μg/m³)
DateTimeUTC,F1_M11,P_M11,Q1_M11,Q2_M11,T1_M11,T2_M11,T3_M11,T4_M11,T5_M11,U1_M11,ZSPAN_M11,X0_M11,X2_M11,X1_M11
2021-12-17 13:00:00,,0820.6,5.00,0.00,22.6,23.3,00.0,31.4,24.6,09.3,0000.0,0007.62,0002.67,0001.70
2021-12-17 13:01:00,,0820.6,4.99,0.00,22.7,23.1,00.0,31.5,24.6,09.3,0000.0,0006.79,0002.61,0001.66
2021-12-17 13:02:00,,0820.6,5.00,0.00,22.7,22.9,00.0,31.5,24.5,09.3,0000.0,0006.16,0002.56,0001.60
2021-12-17 13:03:00,,0820.6,5.00,0.00,22.7,22.7,00.0,31.5,24.5,09.3,0000.0,0005.32,0002.43,0001.55
2021-12-17 13:04:00,,0820.6,5.01,0.00,22.7,22.5,00.0,31.5,24.5,09.3,0000.0,0005.14,0002.38,0001.51
2021-12-17 13:05:00,,0820.6,4.99,0.00,22.7,22.4,00.0,31.5,24.5,09.3,0000.0,0004.97,0002.27,0001.42
2021-12-17 13:06:00,,0820.6,5.01,0.00,22.7,22.3,00.0,31.5,24.5,09.3,0000.0,0004.67,0002.18,0001.36
2021-12-17 13:07:00,,0820.6,4.99,0.00,22.7,22.2,00.0,31.5,24.4,09.3,0000.0,0004.55,0002.11,0001.29
2021-12-17 13:08:00,,0820.7,4.99,0.00,22.6,22.1,00.0,31.5,24.3,09.3,0000.0,0004.92,0002.02,0001.22
2021-12-17 13:09:00,,0820.7,5.02,0.00,22.6,22.1,00.0,31.5,24.3,09.3,0000.0,0005.01,0001.92,0001.18
2021-12-17 13:10:00,,0820.7,4.99,0.00,22.6,22.0,00.0,31.5,24.3,09.3,0000.0,0005.54,0001.87,0001.14
2021-12-17 13:11:00,,0820.7,5.01,0.00,22.6,22.0,00.0,31.5,24.3,09.3,0000.0,0005.31,0001.79,0001.07
2021-12-17 13:12:00,,0820.8,5.01,0.00,22.6,21.9,00.0,31.5,24.3,09.3,0000.0,0005.14,0001.68,0000.99
2021-12-17 13:13:00,,0820.8,4.99,0.00,22.6,21.9,00.0,31.5,24.3,09.4,0000.0,0004.79,0001.52,0000.93
2021-12-17 13:14:00,,0820.8,5.00,0.00,22.6,21.8,00.0,31.5,24.3,09.4,0000.0,0004.72,0001.46,0000.89
2021-12-17 13:15:00,,0820.8,5.01,0.00,22.6,21.8,00.0,31.5,24.3,09.4,0000.0,0004.58,0001.39,0000.85
2021-12-17 13:16:00,,0820.8,4.98,0.00,22.6,21.8,00.0,31.5,24.3,09.4,0000.0,0004.58,0001.37,0000.83
2021-12-17 13:17:00,,0820.8,5.01,0.00,22.6,21.8,00.0,31.5,24.3,09.3,0000.0,0004.35,0001.32,0000.82
2021-12-17 13:18:00,,0820.8,5.00,0.00,22.5,21.7,00.0,31.5,24.2,09.4,0000.0,0004.31,0001.31,0000.82
2021-12-17 13:19:00,,0820.8,5.00,0.00,22.5,21.7,00.0,31.5,24.2,09.4,0000.0,0004.17,0001.32,0000.81
2021-12-17 13:20:00,,0820.8,5.00,0.00,22.5,21.7,00.0,31.5,24.2,09.4,0000.0,0003.70,0001.27,0000.80
2021-12-17 13:21:00,,0820.8,4.99,0.00,22.5,21.7,00.0,31.5,24.2,09.4,0000.0,0003.52,0001.32,0000.80
2021-12-17 13:22:00,,0820.9,5.00,0.00,22.5,21.7,00.0,31.5,24.2,09.4,0000.0,0003.73,0001.37,0000.80
2021-12-17 13:23:00,,0820.8,5.02,0.00,22.5,21.7,00.0,31.5,24.2,09.3,0000.0,0003.88,0001.38,0000.80
2021-12-17 13:24:00,,0820.8,4.99,0.00,22.5,21.7,00.0,31.5,24.2,09.1,0000.0,0003.86,0001.38,0000.78
2021-12-17 13:25:00,,0820.8,5.01,0.00,22.5,21.7,00.0,31.5,24.2,09.1,0000.0,0003.70,0001.32,0000.74
2021-12-17 13:26:00,,0820.8,4.99,0.00,22.5,21.7,00.0,31.4,24.2,09.2,0000.0,0003.60,0001.25,0000.71
2021-12-17 13:27:00,,0820.8,5.01,0.00,22.5,21.7,00.0,31.4,24.2,09.2,0000.0,0003.41,0001.17,0000.68
2021-12-17 13:28:00,,0820.8,5.00,0.00,22.5,21.7,00.0,31.4,24.2,09.2,0000.0,0003.28,0001.08,0000.63
2021-12-17 13:29:00,,0820.9,5.00,0.00,22.5,21.7,00.0,31.4,24.2,09.2,0000.0,0003.39,0001.03,0000.60
2021-12-17 13:30:00,,0820.8,5.01,0.00,22.4,21.7,00.0,31.4,24.1,09.1,0000.0,0003.42,0000.92,0000.55
2021-12-17 13:31:00,,0820.9,4.99,0.00,22.4,21.7,00.0,31.4,24.1,09.0,0000.0,0003.28,0000.88,0000.52
2021-12-17 13:32:00,,0820.8,5.00,0.00,22.4,21.7,00.0,31.4,24.1,09.1,0000.0,0002.83,0000.79,0000.47
2021-12-17 13:33:00,,0820.9,4.99,0.00,22.4,21.7,00.0,31.4,24.1,09.1,0000.0,0002.57,0000.68,0000.42
2021-12-17 13:34:00,,0820.9,4.98,0.00,22.4,21.8,00.0,31.4,24.1,09.1,0000.0,0002.23,0000.59,0000.38
2021-12-17 13:35:00,,0820.9,5.01,0.00,22.5,22.4,00.0,31.5,24.3,09.1,0000.0,0002.07,0000.53,0000.36
2021-12-17 13:36:00,,0820.9,4.98,0.00,22.6,23.2,00.0,31.5,24.5,09.1,0000.0,0002.10,0000.52,0000.36
2021-12-17 13:37:00,,0821.0,5.00,0.00,22.7,23.4,00.0,31.5,24.7,09.1,0000.0,0002.14,0000.51,0000.35
2021-12-17 13:38:00,,0820.9,5.01,0.00,22.8,23.1,00.0,31.5,24.7,09.0,0000.0,0002.16,0000.52,0000.34
2021-12-17 13:39:00,,0820.9,4.99,0.00,22.8,22.9,00.0,31.6,24.6,08.9,0000.0,0002.08,0000.50,0000.33
2021-12-17 13:40:00,,0820.9,5.02,0.00,22.8,22.7,00.0,31.6,24.6,08.6,0000.0,0001.76,0000.47,0000.31
2021-12-17 13:41:00,,0820.9,4.99,0.00,22.8,22.6,00.0,31.6,24.5,08.6,0000.0,0002.11,0000.46,0000.29
2021-12-17 13:42:00,,0820.9,5.00,0.00,22.7,22.4,00.0,31.6,24.4,08.7,0000.0,0001.96,0000.45,0000.29
2021-12-17 13:43:00,,0820.9,5.00,0.00,22.7,22.3,00.0,31.6,24.4,08.3,0000.0,0001.86,0000.44,0000.29
2021-12-17 13:44:00,,0820.9,5.00,0.00,22.7,22.2,00.0,31.6,24.4,08.3,0000.0,0001.87,0000.43,0000.29
2021-12-17 13:45:00,,0820.9,5.00,0.00,22.7,22.1,00.0,31.6,24.3,08.4,0000.0,0001.84,0000.41,0000.28
2021-12-17 13:46:00,,0821.0,5.01,0.00,22.6,22.0,00.0,31.6,24.3,08.3,0000.0,0001.90,0000.43,0000.27
2021-12-17 13:47:00,,0820.9,5.00,0.00,22.6,21.9,00.0,31.6,24.3,08.4,0000.0,0001.83,0000.42,0000.27
2021-12-17 13:48:00,,0821.0,4.99,0.00,22.6,21.8,00.0,31.6,24.2,08.3,0000.0,0001.77,0000.41,0000.26
2021-12-17 13:49:00,,0820.9,5.00,0.00,22.5,21.8,00.0,31.6,24.2,08.3,0000.0,0001.79,0000.39,0000.26
2021-12-17 13:50:00,,0820.9,5.02,0.00,22.5,21.7,00.0,31.6,24.1,08.2,0000.0,0001.89,0000.40,0000.26
2021-12-17 13:51:00,,0821.0,5.01,0.00,22.5,21.7,00.0,31.6,24.1,08.1,0000.0,0001.84,0000.41,0000.25
2021-12-17 13:52:00,,0821.0,4.99,0.00,22.4,21.6,00.0,31.5,24.0,08.1,0000.0,0000.88,0000.40,0000.25
2021-12-17 13:53:00,,0820.9,5.00,0.00,22.3,21.5,00.0,31.5,23.9,08.1,0000.0,0000.87,0000.38,0000.24
2021-12-17 13:54:00,,0820.9,5.00,0.00,22.3,21.4,00.0,31.5,23.8,08.2,0000.0,0000.82,0000.36,0000.23
2021-12-17 13:55:00,,0820.9,5.00,0.00,22.3,21.4,00.0,31.5,23.8,08.2,0000.0,0000.68,0000.34,0000.23
2021-12-17 13:56:00,,0821.0,4.99,0.00,22.2,21.3,00.0,31.4,23.7,08.3,0000.0,0000.62,0000.32,0000.23
2021-12-17 13:57:00,,0821.0,5.02,0.00,22.2,21.3,00.0,31.4,23.7,08.3,0000.0,0000.53,0000.29,0000.23
2021-12-17 13:58:00,,0821.0,4.99,0.00,22.2,21.5,00.0,31.4,23.8,08.4,0000.0,0000.54,0000.29,0000.23
2021-12-17 13:59:00,,0821.0,5.00,0.00,22.3,22.2,00.0,31.4,24.1,08.3,0000.0,0000.57,0000.30,0000.23
